GW5728 Weather Reports


time (UTC)temp
C
wind
direction
speed
KPH
gust
KPH
rain 1hr
cm
rain 24hr
cm
rain mn
cm
humidity
%
barometer
mb
20260507075822 12 131 1.6 17.7 0.00 0.00 0.00 78 1043.7
20260507075322 12 143 0.0 17.7 0.00 0.00 0.00 78 1055.2
20260507074822 12 216 1.6 17.7 0.00 0.00 0.00 78 1067.7
20260507074322 12 340 1.6 17.7 0.00 0.00 0.00 78 1070.6
20260507073822 12 106 0.0 17.7 0.00 0.00 0.00 79 1058.0
20260507073322 12 101 1.6 17.7 0.00 0.00 0.00 78 1065.7
20260507072822 12 306 1.6 17.7 0.00 0.00 0.00 78 1069.2
20260507072322 12 264 3.2 17.7 0.00 0.00 0.00 79 1073.8
20260507071307 12 316 1.6 17.7 0.00 0.00 0.00 79 1066.0
20260507065737 12 213 0.0 17.7 0.00 0.00 0.00 78 1052.7
20260507064207 12 164 0.0 17.7 0.00 0.00 0.00 78 1055.3
20260507063152 12 284 0.0 17.7 0.00 0.00 0.00 78 1067.3
20260507062652 12 150 1.6 17.7 0.00 0.00 0.00 78 1058.7
20260507061122 12 110 0.0 17.7 0.00 0.00 0.00 78 1039.9
20260507060622 12 228 0.0 17.7 0.00 0.00 0.00 78 1054.0
20260507060122 12 150 0.0 17.7 0.00 0.00 0.00 78 1046.7
20260507055107 12 192 0.0 17.7 0.00 0.00 0.00 77 1033.6
20260507054607 12 57 0.0 17.7 0.00 0.00 0.00 77 1038.2
20260507054107 12 291 0.0 17.7 0.00 0.00 0.00 76 1066.1
20260507053607 12 207 0.0 17.7 0.00 0.00 0.00 76 1055.2
20260507053107 13 3 0.0 17.7 0.00 0.00 0.00 75 1059.5
20260507052607 13 326 1.6 17.7 0.00 0.00 0.00 75 1054.2
20260507051551 13 321 1.6 17.7 0.00 0.00 0.00 75 1082.6
20260507051052 13 345 0.0 17.7 0.00 0.00 0.00 76 1064.7
20260507050551 13 192 0.0 17.7 0.00 0.00 0.00 76 1036.8
20260507045021 13 134 0.0 17.7 0.00 0.00 0.00 75 1051.4
20260507044521 13 165 1.6 17.7 0.00 0.00 0.00 74 1060.8
20260507044021 13 179 1.6 17.7 0.00 0.00 0.00 75 1061.4
20260507042451 13 245 0.0 17.7 0.00 0.00 0.00 75 1043.9
20260507041436 13 137 0.0 17.7 0.00 0.00 0.00 75 1057.0
20260507040936 13 298 0.0 17.7 0.00 0.00 0.00 75 1057.6
20260507040436 13 216 1.6 17.7 0.00 0.00 0.00 75 1039.8
20260507035936 13 95 0.0 17.7 0.00 0.00 0.00 75 1015.2
20260507035436 13 72 0.0 17.7 0.00 0.00 0.00 76 1023.6
20260507034421 13 85 0.0 17.7 0.00 0.00 0.00 75 1067.4
20260507033921 13 29 1.6 17.7 0.00 0.00 0.00 75 1052.9
20260507033421 13 45 1.6 17.7 0.00 0.00 0.00 75 1037.4
20260507032921 13 107 0.0 17.7 0.00 0.00 0.00 74 1032.8
20260507032421 13 293 0.0 17.7 0.00 0.00 0.00 74 1051.8
20260507031921 13 144 0.0 17.7 0.00 0.00 0.00 73 1045.1
20260507030906 14 282 1.6 17.7 0.00 0.00 0.00 73 1053.4
20260507030406 14 132 4.8 17.7 0.00 0.00 0.00 72 1035.7
20260507025906 14 71 3.2 17.7 0.00 0.00 0.00 73 1042.3
20260507024336 14 37 1.6 17.7 0.00 0.00 0.00 72 1035.6
20260507023836 14 168 3.2 17.7 0.00 0.00 0.00 71 1043.4
20260507023336 14 204 1.6 17.7 0.00 0.00 0.00 71 1044.2
20260507022836 15 127 1.6 17.7 0.00 0.00 0.00 71 1034.4
20260507022337 15 125 1.6 17.7 0.00 0.00 0.00 72 1053.3
20260507021837 15 304 1.6 17.7 0.00 0.00 0.00 71 1064.8
20260507021336 15 149 1.6 17.7 0.00 0.00 0.00 70 1044.9
20260507020836 15 275 0.0 17.7 0.00 0.00 0.00 71 1058.2
20260507020336 15 245 3.2 17.7 0.00 0.00 0.00 70 1048.1
20260507014251 15 165 1.6 17.7 0.00 0.00 0.00 69 1035.6
20260507013751 15 116 1.6 17.7 0.00 0.00 0.00 70 1030.3
20260507012736 16 145 3.2 17.7 0.00 0.00 0.00 70 1052.3
20260507012236 16 322 1.6 17.7 0.00 0.00 0.00 70 1055.4
20260507011737 16 264 1.6 17.7 0.00 0.00 0.00 69 1075.2
20260507011236 16 280 1.6 17.7 0.00 0.00 0.00 69 1071.0
20260507010736 16 135 1.6 17.7 0.00 0.00 0.00 68 1062.6
20260507010237 17 295 0.0 17.7 0.00 0.00 0.00 68 1077.7
20260507005736 17 192 0.0 17.7 0.00 0.00 0.00 69 1065.5
20260507005236 17 247 0.0 17.7 0.00 0.00 0.00 68 1060.9
20260507004736 17 38 1.6 17.7 0.00 0.00 0.00 68 1053.0
20260507004237 17 218 0.0 17.7 0.00 0.00 0.00 68 1066.9
20260507003736 17 324 3.2 17.7 0.00 0.00 0.00 69 1061.0
20260507003236 17 254 0.0 17.7 0.00 0.00 0.00 68 1065.8
20260507002736 17 164 0.0 17.7 0.00 0.00 0.00 69 1061.0
20260507002237 17 316 1.6 17.7 0.00 0.00 0.00 67 1085.2
20260507001737 17 273 0.0 17.7 0.00 0.00 0.00 67 1078.3
20260507001237 17 333 1.6 17.7 0.00 0.00 0.00 68 1071.2
20260507000737 17 237 1.6 17.7 0.00 0.00 0.00 67 1064.4
20260506235207 17 252 1.6 17.7 0.00 0.00 0.00 65 1068.5
20260506234707 17 1 1.6 17.7 0.00 0.00 0.00 66 1054.2
20260506234207 18 79 3.2 17.7 0.00 0.00 0.00 65 1054.6
20260506233707 18 192 1.6 17.7 0.00 0.00 0.00 63 1058.1
20260506233207 18 229 1.6 17.7 0.00 0.00 0.00 62 1069.6
20260506232707 19 214 1.6 17.7 0.00 0.00 0.00 62 1063.0
20260506232207 19 321 3.2 17.7 0.00 0.00 0.00 63 1067.4
20260506231707 18 257 3.2 17.7 0.00 0.00 0.00 64 1065.8
20260506231207 18 235 3.2 17.7 0.00 0.00 0.00 65 1062.9
20260506230707 18 140 1.6 17.7 0.00 0.00 0.00 63 1052.8
20260506225137 19 317 3.2 17.7 0.00 0.00 0.00 63 1060.7
20260506224637 19 330 3.2 17.7 0.00 0.00 0.00 64 1062.3
20260506223622 19 285 1.6 17.7 0.00 0.00 0.00 65 1072.8
20260506223122 19 264 1.6 17.7 0.00 0.00 0.00 63 1064.9
20260506222622 18 261 1.6 17.7 0.00 0.00 0.00 65 1071.5
20260506222122 18 242 4.8 17.7 0.00 0.00 0.00 65 1064.8
20260506221107 19 198 4.8 17.7 0.00 0.00 0.00 63 1060.2
20260506220607 19 212 3.2 17.7 0.00 0.00 0.00 63 1059.7
20260506220107 19 216 4.8 17.7 0.00 0.00 0.00 62 1055.6
20260506215607 20 31 1.6 17.7 0.00 0.00 0.00 63 1046.6
20260506215107 20 262 1.6 17.7 0.00 0.00 0.00 63 1059.8
20260506214607 20 103 1.6 17.7 0.00 0.00 0.00 61 1058.6
20260506214107 20 254 1.6 17.7 0.00 0.00 0.00 60 1069.4
20260506213607 20 144 0.0 17.7 0.00 0.00 0.00 63 1070.4
20260506213107 19 217 1.6 17.7 0.00 0.00 0.00 61 1079.8
20260506212607 19 336 1.6 17.7 0.00 0.00 0.00 62 1087.2
20260506212107 20 270 1.6 17.7 0.00 0.00 0.00 60 1083.8
20260506211607 20 249 1.6 17.7 0.00 0.00 0.00 59 1074.5
20260506211107 20 271 3.2 17.7 0.00 0.00 0.00 58 1078.4
20260506210607 20 216 1.6 17.7 0.00 0.00 0.00 62 1072.0
20260506210107 20 251 1.6 17.7 0.00 0.00 0.00 57 1076.1
20260506205607 20 273 1.6 17.7 0.00 0.00 0.00 60 1072.7
20260506205107 20 134 1.6 17.7 0.00 0.00 0.00 62 1058.0
20260506204607 20 243 1.6 17.7 0.00 0.00 0.00 60 1070.1
20260506204107 19 76 0.0 17.7 0.00 0.00 0.00 65 1062.5
20260506203052 19 316 1.6 17.7 0.00 0.00 0.00 63 1082.8
20260506202037 19 305 1.6 17.7 0.00 0.00 0.00 64 1063.5
20260506200507 18 312 1.6 17.7 0.00 0.00 0.00 68 1078.7
20260506200007 18 247 3.2 17.7 0.00 0.00 0.00 66 1067.4
20260506195507 18 333 1.6 17.7 0.00 0.00 0.00 69 1077.5
20260506194452 18 354 1.6 17.7 0.00 0.00 0.00 72 1083.1
20260506193952 18 358 1.6 17.7 0.00 0.00 0.00 70 1048.4
20260506193452 18 52 0.0 17.7 0.00 0.00 0.00 71 1037.7
20260506192952 18 307 0.0 17.7 0.00 0.00 0.00 72 1069.6
20260506185837 17 294 1.6 17.7 0.00 0.00 0.00 73 1072.1
20260506185338 17 250 3.2 17.7 0.00 0.00 0.00 72 1083.3
20260506184838 16 335 0.0 17.7 0.00 0.00 0.00 77 1091.8
20260506184338 16 264 1.6 17.7 0.00 0.00 0.00 76 1075.3
20260506183838 16 218 0.0 17.7 0.00 0.00 0.00 78 1067.5
20260506183338 16 199 1.6 17.7 0.00 0.00 0.00 75 1067.9
20260506182837 16 222 3.2 17.7 0.00 0.00 0.00 75 1069.2
20260506181822 16 222 1.6 17.7 0.00 0.00 0.00 74 1067.2
20260506180807 16 146 1.6 17.7 0.00 0.00 0.00 75 1055.9
20260506180308 16 221 1.6 17.7 0.00 0.00 0.00 74 1058.8
20260506175807 16 279 0.0 17.7 0.00 0.00 0.00 76 1077.3
20260506175307 16 278 0.0 17.7 0.00 0.00 0.00 76 1069.8
20260506174807 16 195 1.6 17.7 0.00 0.00 0.00 75 1045.9
20260506173752 15 151 1.6 17.7 0.00 0.00 0.00 76 1052.7
20260506172737 15 266 1.6 17.7 0.00 0.00 0.00 78 1071.7
20260506172237 15 201 1.6 17.7 0.00 0.00 0.00 77 1066.8
20260506171737 15 236 0.0 17.7 0.00 0.00 0.00 77 1069.2
20260506171238 15 257 0.0 17.7 0.00 0.00 0.00 77 1065.2
20260506170738 15 211 0.0 17.7 0.00 0.00 0.00 78 1062.0
20260506170238 15 205 0.0 17.7 0.00 0.00 0.00 78 1067.3
20260506165738 15 244 0.0 17.7 0.00 0.00 0.00 77 1078.1
20260506165238 15 241 1.6 17.7 0.00 0.00 0.00 76 1081.4
20260506164738 15 309 0.0 17.7 0.00 0.00 0.00 78 1084.1
20260506164238 15 287 0.0 17.7 0.00 0.00 0.00 77 1073.2
20260506163738 15 247 1.6 17.7 0.00 0.00 0.00 77 1067.7
20260506163238 15 211 3.2 17.7 0.00 0.00 0.00 76 1065.6
20260506162738 15 226 0.0 17.7 0.00 0.00 0.00 77 1068.3
20260506162238 14 255 1.6 17.7 0.00 0.00 0.00 78 1072.8
20260506161738 14 219 1.6 17.7 0.00 0.00 0.00 77 1069.0
20260506160723 14 321 0.0 17.7 0.00 0.00 0.00 78 1083.4
20260506155153 14 209 0.0 17.7 0.00 0.00 0.00 77 1065.4
20260506154653 14 250 1.6 17.7 0.00 0.00 0.00 77 1068.3
20260506153638 15 274 0.0 17.7 0.00 0.00 0.00 76 1063.2
20260506153138 15 264 1.6 17.7 0.00 0.00 0.00 75 1046.3
20260506152638 15 130 0.0 17.7 0.00 0.00 0.00 80 1029.9
20260506152138 15 130 0.0 17.7 0.00 0.00 0.00 79 1033.9
20260506151638 15 147 0.0 17.7 0.00 0.00 0.00 78 1041.6
20260506151138 14 136 0.0 17.7 0.00 0.00 0.00 78 1053.6
20260506150638 14 198 0.0 17.7 0.00 0.00 0.00 80 1072.7
20260506150138 13 251 1.6 17.7 0.00 0.00 0.00 79 1081.7
20260506145638 13 224 0.0 17.7 0.00 0.00 0.00 82 1078.9
20260506145138 13 264 1.6 17.7 0.00 0.00 0.00 81 1076.3
20260506144638 13 324 1.6 17.7 0.00 0.00 0.00 81 1072.2
20260506144138 13 225 0.0 17.7 0.00 0.00 0.00 81 1060.5
20260506143638 13 210 1.6 17.7 0.00 0.00 0.00 81 1052.7
20260506142623 12 241 1.6 17.7 0.00 0.00 0.00 82 1071.9
20260506142123 12 257 1.6 17.7 0.00 0.00 0.00 82 1069.2
20260506141108 12 268 1.6 17.7 0.00 0.00 0.00 83 1074.1
20260506140608 12 339 0.0 17.7 0.00 0.00 0.00 83 1085.9
20260506135553 12 252 1.6 17.7 0.00 0.00 0.00 83 1082.0
20260506135053 12 288 1.6 17.7 0.00 0.00 0.00 83 1082.8
20260506134553 12 314 0.0 17.7 0.00 0.00 0.00 83 1071.7
20260506134053 12 223 0.0 17.7 0.00 0.00 0.00 84 1069.2
20260506132523 12 265 0.0 17.7 0.00 0.00 0.00 83 1083.6
20260506132023 12 245 1.6 17.7 0.00 0.00 0.00 83 1078.6
20260506131523 12 262 0.0 17.7 0.00 0.00 0.00 84 1076.7
20260506131023 12 274 0.0 17.7 0.00 0.00 0.00 84 1073.8
20260506130523 12 228 0.0 17.7 0.00 0.00 0.00 84 1070.6
20260506130023 12 225 1.6 17.7 0.00 0.00 0.00 84 1074.3
20260506125523 12 252 0.0 17.7 0.00 0.00 0.00 84 1070.2
20260506125022 12 231 1.6 17.7 0.00 0.00 0.00 84 1069.9
20260506124522 12 228 0.0 17.7 0.00 0.00 0.00 84 1067.2
20260506124022 12 203 0.0 17.7 0.00 0.00 0.00 84 1075.8
20260506123522 12 290 3.2 17.7 0.00 0.00 0.00 85 1074.7
20260506122507 12 220 1.6 17.7 0.00 0.00 0.00 85 1062.3
20260506122007 12 249 1.6 17.7 0.00 0.00 0.00 85 1059.2
20260506121507 12 31 0.0 17.7 0.00 0.00 0.00 85 1043.9
20260506121007 12 282 0.0 17.7 0.00 0.00 0.00 85 1072.2
20260506120507 12 292 0.0 17.7 0.00 0.00 0.00 84 1082.6
20260506120007 12 238 1.6 17.7 0.00 0.00 0.00 84 1079.4
20260506115506 12 310 1.6 17.7 0.00 0.00 0.00 84 1078.2
20260506115005 13 305 3.2 17.7 0.00 0.00 0.00 84 1076.7
20260506114505 13 329 0.0 17.7 0.00 0.00 0.00 84 1076.2
20260506114005 13 286 0.0 17.7 0.00 0.00 0.00 83 1070.1
20260506113504 13 322 1.6 17.7 0.00 0.00 0.00 83 1058.0
20260506111934 13 290 0.0 17.7 0.00 0.00 0.00 83 1077.3
20260506111434 13 215 0.0 17.7 0.00 0.00 0.00 83 1070.3
20260506110419 13 303 0.0 17.7 0.00 0.00 0.00 83 1079.3
20260506105919 13 236 0.0 17.7 0.00 0.00 0.00 83 1071.8
20260506105419 13 192 1.6 17.7 0.00 0.00 0.00 83 1064.9
20260506104919 13 266 0.0 17.7 0.00 0.00 0.00 83 1074.8
20260506103904 13 191 0.0 17.7 0.00 0.00 0.00 83 1063.5
20260506103403 13 336 1.6 17.7 0.00 0.00 0.00 83 1057.0
20260506102903 13 161 1.6 17.7 0.00 0.00 0.00 83 1056.9
20260506102404 13 176 0.0 17.7 0.00 0.00 0.00 83 1070.6
20260506100833 13 274 0.0 17.7 0.00 0.00 0.00 84 1095.1
20260506100333 13 300 0.0 17.7 0.00 0.00 0.00 84 1092.0
20260506095833 13 283 0.0 17.7 0.00 0.00 0.00 84 1089.8
20260506095333 13 278 0.0 17.7 0.00 0.00 0.00 84 1089.4
20260506094834 13 284 0.0 17.7 0.00 0.00 0.00 84 1089.0
20260506094333 13 284 0.0 17.7 0.00 0.00 0.00 84 1086.6
20260506093834 13 270 0.0 17.7 0.00 0.00 0.00 84 1085.3
20260506092819 13 267 0.0 17.7 0.00 0.00 0.00 84 1083.6
20260506092318 13 256 0.0 17.7 0.00 0.00 0.00 84 1085.0
20260506091818 13 263 0.0 17.7 0.00 0.00 0.00 84 1091.5
20260506091317 13 301 0.0 17.7 0.00 0.00 0.00 85 1091.0
20260506090817 13 263 0.0 17.7 0.00 0.00 0.00 84 1089.3
20260506090318 13 294 0.0 17.7 0.00 0.00 0.00 85 1089.9
20260506085818 13 277 0.0 17.7 0.00 0.00 0.00 85 1082.9
20260506085318 13 263 0.0 17.7 0.00 0.00 0.00 87 1080.8
20260506084818 13 263 0.0 17.7 0.00 0.00 0.00 87 1079.6
20260506084318 13 263 0.0 17.7 0.00 0.00 0.00 86 1077.5
20260506083818 13 264 0.0 17.7 0.00 0.00 0.00 84 1073.4
20260506083318 13 221 0.0 17.7 0.00 0.00 0.00 85 1065.9
20260506082818 13 245 0.0 17.7 0.00 0.00 0.00 86 1063.7
20260506082318 13 232 0.0 17.7 0.00 0.00 0.00 86 1055.6
20260506081818 13 215 0.0 17.7 0.00 0.00 0.00 86 1043.1
20260506081318 13 162 0.0 17.7 0.00 0.00 0.00 87 1026.1
20260506080302 13 119 0.0 17.7 0.00 0.00 0.00 89 1023.3